Location: ???????
(55.4231°N, 38.5570°E)
Time: 14:13:16
(UTC+00:00)

IDEFIX/ARIANE 42P - Pass Details

Date: 05 August 2024
Orbit: 782 x 799 km, 98.5° (Epoch: 18 September)

Event Time Altitude Azimuth Distance (km) Brightness Sun altitude
Rises 00:04:34 0° 14° (NNE) 3,287 7.1 -10.8°
Reaches altitude 10° 00:06:56 10° 10° (N) 2,354 6.1 -10.6°
Maximum altitude 00:11:58 54° 294° (WNW) 955 2.9 -10.2°
Enters shadow 00:16:30 13° 220° (SW) 2,159 4.1 -9.8°
